Location: Unspecified
(41.1850°N, 73.2650°W)
Time: 01:35:07
(UTC+00:00)

Daily predictions for brighter satellites

Satellite Brightness Start Highest point End
(mag) Time Altitude Azimuth Time Altitude Azimuth Time Altitude Azimuth
Cosmos 1500 Rocket 3.5 00:55:19 10° N 00:59:36 71° E 01:03:51 10° SSE
Cosmos 2082 Rocket 3.9 00:56:48 10° N 01:00:44 19° NE 01:04:37 10° E
ARIANE 6 FM1 Upper Stage 4.4 00:59:11 10° SE 01:01:20 14° ESE 01:03:28 10° E
Cosmos 2278 Rocket 2.6 00:56:51 10° S 01:02:05 41° ESE 01:07:21 10° NE
Iridium 4 Rocket 4.3 01:01:05 10° SE 01:05:14 28° E 01:09:07 10° NNE
Meteor 1-31 Rocket 2.6 01:03:06 10° S 01:06:31 74° WSW 01:09:58 10° NNW
Milstar 3 Cent rocket 4.0 01:03:57 10° WSW 01:07:05 14° SSW 01:09:46 10° S
USA 276 4.3 01:06:02 10° NW 01:07:18 15° NNW 01:08:40 10° NNE
Okean-O 3.7 01:03:45 10° SE 01:07:33 30° ENE 01:11:22 10° N
CSL-04 Rocket 4.5 01:03:35 10° S 01:08:40 50° W 01:13:48 10° NNW
SL-8 R/B 4.1 01:06:11 10° WSW 01:10:53 69° NNW 01:15:36 10° ENE
Timation 1 Rocket 4.4 01:05:41 10° NNW 01:11:39 72° ENE 01:17:35 10° SSE
CZ-4 R/B 2.0 01:09:23 10° S 01:13:07 54° W 01:16:56 10° NNW
Cosmos 1328 Rocket 4.2 01:11:47 10° SSE 01:15:42 35° E 01:19:36 10° NNE
BREEZE-M R/B 4.3 01:10:30 10° WNW 01:18:03 82° SW 01:23:45 11° SE
Cosmos 1680 Rocket 3.6 01:14:10 10° S 01:19:12 56° ESE 01:24:18 10° NNE
Meteor 1-13 Rocket 4.4 01:15:21 10° S 01:21:11 61° E 01:27:01 10° NNE
NOSS 2-1 (E) 3.1 01:20:12 10° SSW 01:24:37 87° ESE 01:28:00 10° NE
Cosmos 1745 Rocket 4.3 01:20:17 10° N 01:26:29 53° E 01:32:38 10° SSE
ERS-1 Rocket 3.5 01:22:09 10° S 01:27:05 59° W 01:32:01 10° NNW
Timation 2 Rocket 4.4 01:21:19 10° S 01:27:09 42° ESE 01:33:16 10° NE
Helios 1A Rocket 2.1 01:25:40 10° NNE 01:28:47 74° E 01:31:53 10° S
Okean O Rocket 1.9 01:25:20 11° SSE 01:29:23 51° ENE 01:33:39 10° N
USA 59 Rocket 0.8 01:26:26 10° SW 01:30:11 44° NW 01:33:14 10° NNE
IRAS Rocket 4.4 01:25:25 10° SSE 01:30:59 77° WSW 01:36:38 10° NNW
SL-12 R/B (Aux Motor) 3.7 01:29:15 10° WNW 01:31:20 82° NNE 01:34:14 13° ESE
Cosmos 2056 Rocket 4.0 01:27:37 10° N 01:32:30 45° ENE 01:36:36 14° SE
SL-08 R/B 3.2 01:30:35 10° NNE 01:35:11 86° ESE 01:39:47 10° SSW
BREEZE-M R/B 4.3 01:33:19 10° W 01:36:34 42° NNW 01:42:20 10° ENE
Terra 2.5 01:32:22 10° S 01:36:55 52° W 01:41:32 10° NNW
Cosmos 1420 Rocket 4.0 01:32:43 10° NNW 01:37:55 84° WSW 01:42:47 11° SSE
Ariane Rocket 4.1 01:37:09 13° ESE 01:40:46 29° ENE 01:45:04 10° N
NOSS 3-1 (C) 4.1 01:40:04 15° SE 01:41:30 18° ESE 01:44:44 10° ENE
NOSS 2-1 (D) 4.5 01:38:18 10° SW 01:42:06 41° NW 01:45:11 10° NNE
Spot 2 Rocket 3.5 01:37:16 10° SSE 01:42:18 86° ENE 01:47:25 10° NNW
Meteor 1-21 4.3 01:38:25 10° S 01:43:55 58° E 01:49:29 10° NNE
GP-B 3.3 01:39:44 10° NNE 01:44:02 53° E 01:47:35 14° SSE
SL-4 R/B 2.1 01:42:56 10° WSW 01:46:20 60° NNW 01:49:37 10° NE
Cosmos 1666 Rocket 3.5 01:42:52 10° N 01:47:09 68° E 01:50:30 16° SSE
SWARM C 4.3 01:57:01 10° N 02:00:14 79° E 02:02:07 23° S
SWARM A 4.1 01:57:11 10° N 02:00:23 64° E 02:02:01 26° SSE
Cosmos 1515 Rocket 3.9 02:01:28 21° SSE 02:04:00 46° E 02:08:08 10° NNE
Cosmos 494 Rocket 4.4 01:59:18 10° SSW 02:04:29 67° WNW 02:09:43 10° NNE
USA 186 0.8 02:09:28 55° WSW 02:09:34 56° WSW 02:11:29 10° NNW
Cosmos 1833 Rocket 4.5 02:05:18 10° NW 02:09:50 25° WSW 02:14:21 10° SSW
Cosmos 2344 4.3 02:03:51 10° SW 02:11:38 53° NW 02:18:39 10° NNE
Cosmos 1633 Rocket 3.1 02:07:21 10° N 02:11:45 78° W 02:14:45 20° S
Cosmos 1400 Rocket 3.3 02:10:04 10° N 02:13:26 36° ENE 02:14:30 29° ESE
ATLAS 5 CENTAUR R/B 0.3 02:14:56 21° SSW 02:16:42 72° SE 02:19:39 10° NE
COSMOS 2455 4.3 02:20:06 17° ESE 02:20:22 17° ESE 02:24:02 10° ENE
Meteor 1-23 Rocket 4.5 02:15:17 10° SSW 02:20:48 68° W 02:26:23 10° N
Cosmos 1371 Rocket 4.2 02:20:20 10° NNW 02:25:29 64° WSW 02:28:38 23° S
Cosmos 2315 Rocket 4.2 02:21:57 10° SSW 02:28:07 69° W 02:34:19 10° N
Lacrosse 4 Rocket 3.9 02:27:28 10° NNE 02:29:01 12° NE 02:30:34 10° ENE
Cosmos 1452 Rocket 4.3 02:24:52 10° N 02:29:47 39° ENE 02:32:11 25° ESE
Cosmos 1331 Rocket 4.2 02:26:25 10° NNW 02:31:31 59° ENE 02:33:53 31° SE
Cosmos 1818 4.4 02:31:14 28° SE 02:32:05 30° ESE 02:36:44 10° NE
Cosmos 1441 Rocket 2.6 02:32:34 56° SSE 02:33:02 67° E 02:36:14 10° NNE
Cosmos 1943 Rocket 4.2 02:28:23 10° WSW 02:33:13 29° NW 02:38:04 10° N
ARIANE 6 FM1 Upper Stage 3.1 02:35:40 10° SW 02:39:51 62° NW 02:43:58 10° NNE
USA 245 3.3 02:41:32 36° WSW 02:41:39 37° WSW 02:43:55 10° NNW
Okean-O 4.5 02:40:27 11° SSW 02:43:48 24° W 02:47:22 10° NW
Cosmos 2082 Rocket 2.3 02:39:45 10° NNW 02:45:21 71° WSW 02:48:02 31° S
Cosmos 2278 Rocket 4.1 02:41:19 10° WSW 02:46:14 30° NW 02:51:11 10° N
IRS-1C Rocket 4.2 02:46:54 29° S 02:49:34 69° WSW 02:54:50 10° NNW
Meteor 1-12 Rocket 4.5 02:45:47 10° NNW 02:51:33 70° W 02:54:44 28° S
CZ-4B R/B 3.6 02:50:59 31° SSW 02:52:28 47° W 02:56:21 10° NNW
Cosmos 1656 Rocket 3.8 02:52:03 12° SSW 02:57:10 72° WNW 03:02:45 10° NNE
Cosmos 2184 Rocket 4.1 02:54:04 10° N 03:00:22 67° E 03:03:03 36° SSE
Okean 3 3.8 02:59:41 32° SW 03:01:17 56° W 03:05:15 10° N
Cosmos 2154 Rocket 4.1 02:56:49 10° N 03:03:01 64° E 03:05:29 37° SSE
Cosmos 1933 Rocket 3.6 03:01:23 10° NNW 03:05:42 72° W 03:06:50 48° SSW
Okean O Rocket 4.1 03:03:29 10° SW 03:05:50 14° W 03:08:14 10° WNW
SL-12 R/B(2) 4.2 03:03:14 10° SSW 03:10:56 89° ESE 03:20:20 10° NE
CZ-3B R/B 3.7 03:14:18 34° SE 03:15:20 36° ESE 03:27:55 10° NE
CZ-2C R/B 3.3 03:16:23 36° NW 03:16:23 36° NW 03:18:18 10° NNW
CZ-4B R/B 4.4 03:15:24 27° SSW 03:17:37 41° W 03:22:35 10° NNW
Okean 1-7 3.4 03:18:05 45° E 03:18:05 45° E 03:22:04 10° NNE
Ariane Rocket 4.2 03:17:13 23° SW 03:19:30 34° W 03:24:05 10° NNW
Cosmos 2369 Rocket 2.0 03:17:47 41° S 03:19:45 76° ESE 03:25:22 10° NNE
Helios 1A 3.0 03:16:31 10° NNE 03:20:16 57° E 03:20:16 57° E
Cosmos 1302 Rocket 4.1 03:15:43 10° NNW 03:20:59 68° ENE 03:22:19 49° SE
Cosmos 1328 3.7 03:26:49 67° WNW 03:26:49 67° WNW 03:30:11 10° N
NOSS 3-1 (A) 2.8 03:30:31 57° ESE 03:30:33 57° ESE 03:35:40 10° NE
ARGOS Delta rocket 3.8 03:26:02 10° NNE 03:31:04 65° E 03:31:40 58° SE
NOSS 3-1 (C) 3.7 03:27:14 11° SW 03:31:26 49° NW 03:36:41 10° NNE
Helios 1B rocket 3.5 03:34:20 28° NE 03:34:20 28° NE 03:36:54 10° N
Cosmos 2297 3.6 03:32:15 43° SSW 03:34:14 85° ESE 03:39:59 10° NNE
Cosmos 1869 Rocket 4.3 03:33:57 10° NNW 03:38:03 42° W 03:38:46 39° WSW
Meteor 2-5 Rocket 4.0 03:41:44 47° SE 03:42:50 54° E 03:48:35 10° NNE
COSMOS 2406 3.6 03:37:44 10° NNW 03:43:14 52° WSW 03:44:33 43° SSW
Cosmos 1992 Rocket 4.2 03:38:16 10° NNW 03:43:25 60° ENE 03:44:23 51° ESE
Cosmos 1733 Rocket 2.8 03:40:31 10° N 03:44:50 83° E 03:44:55 82° ESE
Exosat Rocket 4.5 03:41:55 25° SW 03:45:36 67° WNW 03:53:50 10° NNE
Cosmos 1707 Rocket 3.4 03:49:08 84° SSW 03:49:16 89° WNW 03:53:43 10° N
CZ-2C R/B 4.2 03:47:06 10° NE 03:51:15 27° E 03:51:15 27° E
Cosmos 2366 rocket 4.3 03:53:34 10° N 03:59:46 55° E 04:01:20 44° SE
Cosmos 1862 Rocket 3.8 04:01:31 56° W 04:01:45 57° W 04:06:00 10° N
ARIANE 5 R/B 2.8 04:01:59 59° E 04:02:04 59° ENE 04:06:23 10° N
Cosmos 2327 Rocket 4.3 03:56:31 10° N 04:02:38 83° E 04:04:02 56° SSE
IRIDIUM 106 4.2 03:58:03 10° N 04:03:18 73° E 04:03:54 65° SE
COSMOS 2455 2.9 04:03:10 38° SW 04:05:33 75° WNW 04:11:35 10° NNE
Cosmos 972 4.4 04:01:49 10° NNW 04:07:23 81° ENE 04:08:01 68° SE
Lacrosse 4 Rocket 1.5 04:03:10 10° NNW 04:06:56 70° NW 04:06:56 70° NW
Meteor 2-15 4.3 04:04:51 10° N 04:10:56 79° E 04:12:13 57° SSE
Cosmos 2181 Rocket 4.2 04:14:02 48° SE 04:15:20 57° E 04:21:36 10° NNE
USA 290 4.4 04:13:28 10° NW 04:14:57 23° NW 04:14:57 23° NW
Cosmos 1315 Rocket 3.4 04:12:45 10° NNW 04:15:47 51° NW 04:15:47 51° NW
Cosmos 962 Rocket 4.5 04:11:37 10° N 04:18:00 78° W 04:19:31 54° SSW
Meteor 2-13 Rocket 4.3 04:17:21 57° S 04:18:44 87° W 04:24:52 10° N
ALOS 2 2.6 04:20:31 79° NE 04:20:31 79° NE 04:24:46 10° N
Cosmos 2228 Rocket 3.4 04:21:36 58° W 04:21:38 58° W 04:26:01 10° N
CZ-2C R/B 3.5 04:23:23 33° E 04:24:35 38° ENE 04:29:27 10° N
SJ 16-02 3.2 04:26:46 20° ENE 04:26:46 20° ENE 04:28:57 10° NE
Cosmos 2218 Rocket 3.9 04:21:53 10° N 04:28:11 84° E 04:29:29 59° SSE
Cosmos 1908 Rocket 3.6 04:27:01 10° N 04:31:08 72° NE 04:31:08 72° NE
Gbstr 26 Del rocket 4.0 04:37:12 55° SE 04:37:17 55° SE 04:44:06 10° ENE
ACS3 Solar Sail 2.2 04:33:31 10° NNE 04:38:55 42° E 04:39:34 41° ESE
Cosmos 921 Rocket 3.5 04:41:55 50° NE 04:41:55 50° NE 04:45:12 10° NNE
SL-8 Rocket 4.1 04:38:01 10° NNW 04:44:04 61° W 04:45:17 51° SW
Cosmos 304 Rocket 3.9 04:44:40 61° E 04:44:40 61° E 04:49:04 10° NNE
Lacrosse 5 rocket 3.6 04:45:28 10° NNW 04:47:48 17° NNE 04:49:32 12° ENE
Cosmos 1782 Rocket 3.9 04:47:06 10° N 04:51:06 59° ENE 04:51:06 59° ENE
USA 229 DEB 4.4 04:54:58 30° ESE 04:54:58 30° ESE 05:00:24 10° NE
USA 229 4.4 04:55:01 30° ESE 04:55:01 30° ESE 05:00:25 10° NE
Meteor 2-15 Rocket 4.5 04:50:01 10° NNW 04:56:02 64° W 04:57:04 55° SW
PSLV R/B 4.5 04:52:14 10° N 04:56:37 42° WNW 04:57:03 41° W
USA 215 3.6 04:58:23 15° ESE 05:03:49 63° NE 05:10:15 10° NW
Cosmos 2369 Rocket 4.5 05:00:41 10° W 05:04:23 18° NW 05:08:08 10° N
Cosmos 1269 Rocket 4.3 05:05:24 53° WSW 05:06:12 59° WNW 05:11:26 10° NNE
Cosmos 1932 4.4 04:59:46 10° NW 05:06:13 72° WSW 05:07:16 60° S
Cosmos 2297 Rocket 3.7 05:01:17 10° N 05:06:18 31° ENE 05:09:36 18° ESE
Cosmos 1300 Rocket 3.9 05:04:13 10° NNW 05:07:55 58° NW 05:07:55 58° NW
Cosmos 407 Rocket 3.3 05:10:38 80° SSE 05:10:49 83° ESE 05:15:58 10° NNE
Cosmos 371 Rocket 3.2 05:11:13 81° W 05:11:16 81° WNW 05:16:07 10° NNE
Cosmos 1140 Rocket 4.3 05:14:00 36° W 05:15:02 40° WNW 05:19:51 10° N
In-Cosmos 22 Rocket 4.3 05:18:00 57° WSW 05:18:50 65° WNW 05:24:30 10° N
Cosmos 1378 Rocket 4.5 05:19:46 37° E 05:19:46 37° E 05:23:27 10° NNE
Cosmos 2239 Rocket 4.3 05:13:23 10° N 05:19:33 88° W 05:20:47 60° S
Cosmos 1934 Rocket 4.4 05:15:55 10° N 05:22:11 58° E 05:24:13 41° SE
Cosmos 1763 Rocket 3.2 05:25:01 10° NNW 05:30:05 82° WSW 05:30:18 79° SSW
Cosmos 1656 3.7 05:30:13 59° WSW 05:31:08 71° WNW 05:36:42 10° NNE
CZ-2C R/B 4.0 05:26:35 10° N 05:31:13 34° WNW 05:32:13 31° W
Cosmos 1954 Rocket 4.4 05:33:54 45° ESE 05:34:16 46° ESE 05:39:11 10° NNE
USA 32 3.9 05:29:57 10° N 05:35:11 79° E 05:35:52 66° SSE
Meteor 1-21 Rocket 4.4 05:35:28 56° SW 05:36:37 71° W 05:42:33 10° N
Cosmos 1346 Rocket 3.6 05:38:07 42° NNW 05:38:07 42° NNW 05:40:51 10° N
Cosmos 1190 Rocket 4.1 05:37:10 58° SE 05:37:37 61° ESE 05:42:45 10° NNE
Landsat 5 3.7 05:35:05 10° N 05:38:10 56° NNW 05:38:10 56° NNW
Cosmos 1339 Rocket 4.4 05:37:45 56° SSW 05:39:02 76° W 05:45:10 10° N
Meteor 1-11 4.1 05:41:56 62° S 05:42:57 83° E 05:48:44 10° NNE
Cosmos 2084 Rocket 4.0 05:44:28 46° NW 05:44:28 46° NW 05:48:23 10° NNE
Nadezhda 3 Rocket 4.4 05:46:24 41° WSW 05:47:58 51° WNW 05:54:07 10° N
ATLAS 3B R/B 3.1 05:48:52 43° S 05:51:16 60° ESE 05:58:59 10° NE
Cosmos 1674 Rocket 3.8 05:52:20 59° ESE 05:52:29 59° E 05:56:50 10° NNE
Cosmos 1025 Rocket 3.2 05:58:15 62° ESE 05:58:25 62° E 06:02:43 10° NNE
CENTAUR R/B 3.5 05:50:25 10° NNW 05:58:57 77° NE 06:08:31 10° SE
SJ 16-02 2.5 06:03:14 30° WNW 06:03:32 30° WNW 06:07:19 10° N
NOSS 2-2 (E) 3.7 06:00:42 10° NNW 06:04:38 73° NE 06:06:13 42° SE
CZ-2C R/B 3.8 06:04:50 27° W 06:04:51 27° W 06:09:18 10° NW
Cosmos 1697 Rocket 2.6 06:05:34 55° S 06:06:46 74° ESE 06:12:22 10° NNE
BREEZE-M DEB (TANK) 3.8 05:51:45 10° WNW 06:07:52 75° NNE 06:11:38 10° ESE
Cosmos 540 Rocket 4.1 06:04:04 10° NW 06:08:36 39° W 06:08:36 39° W
Aureole 3 4.4 06:09:31 49° SW 06:11:09 69° W 06:16:43 10° N
PSLV R/B 3.7 06:08:02 10° NNE 06:11:41 75° ENE 06:11:41 75° ENE
Okean 2 Rocket 3.4 06:10:53 10° N 06:15:13 59° E 06:16:04 49° SE
NOSS 2-2 (D) 3.7 06:11:21 10° NW 06:15:09 60° WSW 06:15:09 60° WSW
Centaur D AC-294.306:21:21ESE06:21:21ESE06:04:33WSW
Geosat 3.9 06:11:15 10° NNE 06:16:17 86° WNW 06:17:20 57° SSW
SL-8 R/B 3.5 06:14:32 10° WNW 06:19:15 70° SW 06:19:28 68° SSW
Cosmos 468 Rocket 3.9 06:14:48 10° NNW 06:19:50 60° WSW 06:20:26 56° SW
FENGYUN 3A 4.5 06:15:01 10° NNE 06:20:05 41° E 06:22:04 30° SE
ACS3 Solar Sail 3.0 06:16:08 10° N 06:20:53 28° WNW 06:22:53 23° W
Cosmos 405 Rocket 4.1 06:22:26 22° NW 06:22:26 22° NW 06:23:59 10° NNW
Cosmos 2227 Rocket 3.0 06:15:54 10° NNW 06:21:22 48° ENE 06:26:25 12° SE
Cosmos 1782 4.2 06:18:44 10° NNE 06:21:46 27° ENE 06:22:38 24° ESE
Okean 1 Rocket 3.2 06:18:48 10° N 06:23:05 66° E 06:23:55 52° SE
Resurs 1-4 Rocket 4.5 06:20:39 10° ENE 06:23:16 14° E 06:25:52 10° ESE
Cosmos 676 Rocket 3.9 06:22:59 55° SSW 06:24:09 85° WNW 06:29:21 10° NNE
Lacrosse 5 rocket 2.8 06:21:14 10° NW 06:22:35 22° NW 06:22:35 22° NW
Meteor 2-14 Rocket 4.5 06:24:06 44° SSW 06:26:03 68° W 06:32:12 10° N
Cosmos 2151 Rocket 3.5 06:22:38 10° NNW 06:27:06 72° W 06:27:33 65° SW
Cosmos 968 Rocket 3.6 06:27:06 46° SSE 06:28:31 66° ESE 06:33:43 10° NNE
Cosmos 2251 Rocket 4.1 06:27:49 37° WSW 06:29:18 46° WNW 06:34:28 10° N
Cosmos 1605 Rocket 3.9 06:23:40 10° N 06:29:53 75° W 06:32:08 41° S
NPP 4.0 06:31:15 10° NNE 06:36:35 58° E 06:38:46 34° SSE
Spot 1 4.2 06:32:41 10° N 06:37:27 75° WNW 06:38:27 53° SW
Cosmos 2292 Rocket 3.2 06:37:15 63° SE 06:37:33 68° E 06:41:42 10° NNE
MSX 3.8 06:32:06 10° NNE 06:37:52 81° ESE 06:40:08 39° S
GEOS 3 Rocket 3.9 06:37:29 43° SW 06:38:06 45° WSW 06:43:15 10° NW
SL-4 R/B 3.2 06:37:24 10° NW 06:40:16 31° NNE 06:43:06 10° E
USA 229 DEB 4.1 06:42:20 26° WSW 06:45:28 48° NW 06:51:53 10° NNE
USA 229 4.1 06:42:23 26° WSW 06:45:29 48° NW 06:51:56 10° NNE
USA 215 3.7 06:45:40 35° SSW 06:47:00 38° SW 06:53:01 10° WNW
OPS 6432 4.4 06:44:16 10° NNW 06:47:38 73° NE 06:48:08 58° ESE
Cosmos 841 Rocket 3.4 06:42:36 10° NNW 06:47:46 71° WSW 06:49:37 39° S
H-2A R/B 4.1 06:46:25 10° NE 06:50:06 20° E 06:53:43 10° SE
Cosmos 2297 Rocket 2.7 06:45:08 10° NW 06:50:21 39° WSW 06:51:20 36° SW
Cosmos 2221 Rocket 3.8 06:50:21 46° SW 06:51:17 56° W 06:55:46 10° N
Envisat 4.3 06:48:31 10° NNE 06:53:06 33° E 06:56:15 17° SSE
IDEFIX/ARIANE 42P 2.5 06:49:22 10° N 06:54:34 73° WNW 06:56:32 39° SSW
Cosmos 1741 Rocket 4.2 06:52:30 34° S 06:54:43 63° ESE 06:59:57 10° NNE
Cosmos 1980 Rocket 2.2 06:54:00 37° SSW 06:56:23 82° ESE 07:02:06 10° NNE
Cosmos 1850 Rocket 4.0 06:55:43 36° S 06:57:48 72° ESE 07:02:58 10° NNE
Cosmos 2058 3.5 06:56:32 32° SE 06:57:53 47° E 07:01:40 10° NNE
ADEOS Rocket 2.8 06:52:09 10° N 06:57:56 70° WNW 07:00:20 35° SW
Cosmos 2263 Rocket 2.5 06:54:46 10° NNW 07:00:21 65° ENE 07:05:56 10° SE
ISS -3.8 07:03:48 66° SSE 07:03:59 68° SE 07:07:21 10° ENE
Cosmos 1455 Rocket 2.9 07:01:10 10° N 07:05:32 83° W 07:07:17 36° S
SL-24 DEB 4.0 07:05:21 36° S 07:07:08 84° W 07:11:37 10° N
Sich 1 Rocket 4.0 07:03:46 10° NNW 07:08:05 46° W 07:09:09 38° SW
USA 308 2.6 07:04:14 10° NW 07:08:23 89° NNE 07:12:22 10° SE
NOSS 3-2 (A) 4.2 07:04:03 10° NW 07:11:37 84° NE 07:20:39 10° SE
Cosmos 1459 Rocket 4.0 07:13:30 10° N 07:19:48 86° E 07:25:24 14° S
ADEOS II 3.6 07:15:16 10° NE 07:19:48 29° E 07:24:19 10° SSE
SL-19 R/B 3.7 07:20:40 32° SSE 07:21:57 77° ENE 07:25:00 10° NNW
Cosmos 2123 Rocket 4.1 07:17:49 21° S 07:22:15 82° E 07:28:34 10° N
Cosmos 158 Rocket 4.2 07:19:32 10° NNW 07:24:22 62° ENE 07:29:10 10° SSE
CZ-2D R/B 2.9 07:22:10 10° NNE 07:27:24 48° E 07:31:52 13° S
NOAA 11 4.2 07:24:51 10° N 07:30:20 70° WNW 07:33:40 24° SSW
Cosmos 2173 Rocket 4.0 07:28:06 10° NNW 07:34:17 69° W 07:39:15 16° S
SL-16 R/B 3.4 07:31:22 11° SSE 07:36:18 35° ESE 07:41:22 10° NE
Centaur D AC-25 4.3 07:39:37 10° SSE 07:40:04 10° SSE 07:40:47 10° SSE
ATLAS 3B R/B 4.0 07:36:05 13° WSW 07:42:28 37° NW 07:49:42 10° NNE
Cosmos 1536 Rocket 4.5 07:44:22 10° SSE 07:48:35 47° E 07:52:50 10° NNE
CENTAUR R/B 4.1 07:41:55 10° NW 07:49:18 30° WSW 07:56:42 11° SSW
Cosmos 2016 Rocket 4.0 07:43:34 10° N 07:49:52 89° W 07:56:13 10° S
Cosmos 2369 3.8 07:49:01 20° SW 07:53:02 70° WNW 07:58:47 10° NNE
Cosmos 1437 Rocket 3.8 07:50:25 10° NW 07:53:03 21° W 07:53:36 20° WSW
Cosmos 2228 3.8 07:50:44 10° NNW 07:54:32 33° W 07:56:41 20° SW
Cosmos 1782 4.4 07:54:00 10° NW 07:56:04 15° W 07:56:27 15° W
ALOS 2.2 07:52:53 10° NNE 07:57:28 86° W 08:01:16 15° SSW
Cosmos 2061 Rocket 4.4 07:53:34 10° N 07:59:55 69° E 08:06:09 10° SSE
Cosmos 2100 Rocket 4.5 07:54:28 10° NNW 08:00:12 41° W 08:05:01 14° SSW
Cosmos 2333 Rocket 2.9 07:55:32 10° S 08:00:59 51° ESE 08:06:29 10° NE
Cosmos 1814 Rocket 3.9 07:56:55 10° NNW 08:02:12 73° WSW 08:07:23 10° S
DMSP B5D2-2 4.3 07:57:45 11° S 08:02:42 51° W 08:07:49 10° NNW
Resurs 1-4 Rocket 2.1 07:58:16 10° N 08:03:32 72° WNW 08:08:10 13° SSW
NOSS 3-2 (C) 4.3 07:56:23 10° NNW 08:03:57 80° NE 08:12:58 10° SE
Cosmos 2227 Rocket 3.3 08:00:39 10° NW 08:05:01 23° W 08:08:06 15° SW
Cosmos 1725 Rocket 4.1 07:59:27 10° NNW 08:05:37 61° W 08:11:46 10° S
DELTA 2 R/B (1) 3.6 08:01:04 14° WSW 08:05:45 66° SSE 08:11:15 10° E
Cosmos 1975 Rocket 4.4 08:08:37 15° WSW 08:10:59 23° WNW 08:14:25 10° NNW
ARGOS 3.8 08:07:32 10° NNE 08:12:50 54° E 08:18:06 10° S
METEOR-M 4.3 08:10:03 10° NNE 08:15:25 75° ESE 08:20:44 10° S
Tiangong -0.2 08:14:56 12° S 08:16:46 19° SSE 08:19:06 10° ESE
SL-4 R/B 2.1 08:14:41 10° WNW 08:17:27 29° SW 08:20:11 10° SSE
DNEPR-1 R/B 3.5 08:15:19 14° SSW 08:18:56 83° SE 08:23:27 10° NE
Cosmos 2322 Rocket 3.1 08:16:49 10° S 08:22:09 46° ESE 08:27:32 10° NE
H-2A R/B 2.4 08:24:45 10° N 08:29:39 47° WNW 08:34:23 10° SW
USA 308 4.2 08:27:14 10° W 08:29:45 16° WSW 08:32:03 10° SSW
Envisat 4.1 08:27:34 10° N 08:31:54 29° WNW 08:36:12 10° SW
Meteor 2-17 Rocket 4.4 08:27:03 10° S 08:33:07 83° W 08:39:11 10° N
Cosmos 1447 Rocket 4.5 08:30:17 10° SSW 08:36:22 72° W 08:42:32 10° N
Cosmos 1606 Rocket 3.6 08:35:20 10° N 08:39:47 87° E 08:44:13 10° S
Cosmos 2233 Rocket 4.3 08:34:21 10° NNW 08:40:21 48° W 08:46:20 10° SSW
ISS -1.7 08:38:15 10° WNW 08:41:03 23° NNW 08:43:49 10° NE
Cosmos 1980 Rocket 4.1 08:37:27 10° W 08:41:05 17° NW 08:44:43 10° N
Cosmos 2219 3.8 08:36:35 10° NW 08:41:44 36° WSW 08:46:52 10° S
SL-16 R/B 3.0 08:36:39 10° SSE 08:42:45 67° ENE 08:48:51 10° N
Cosmos 2263 Rocket 3.7 08:40:08 10° WNW 08:43:38 17° W 08:47:09 10° SW
NOSS 2-3 (C) 4.5 08:40:09 10° NW 08:45:34 73° WSW 08:53:08 10° SSE
Cosmos 44 3.6 08:41:53 10° SW 08:47:04 75° WNW 08:52:29 10° NNE
CZ-2C R/B 3.8 08:44:03 10° NNE 08:48:40 39° E 08:53:22 10° SSE
Cosmos 2219 Rocket 3.3 08:45:07 10° S 08:50:25 45° ESE 08:55:47 10° NE
